Погода в Малине

Россия / Московская область     55°06′46″N   38°10′36″E
темп.,
°C
ветер,
м/с
пор.,
м/с
влажн.,
%
обл.,
%
осадки,
мм/ч
давл.,
гПа
погр.,
м
23 сентября, чт
чт2300:00+7всв3694100 0.1 1013178
03:00+7св3497100 5.0 1013141
06:00+8всв2599100 0.2 1013236
09:00+9вюв1298100 0.3 1012216
12:00+10ююз1287100 0.2 1012417
15:00+12юз2367100 0.8 10111048
18:00+10ю2278100 0.4 101129
21:00+8ююз3587100 0.6 1010112
24 сентября, пт
пт2400:00+6ю34925 0.0 101071
03:00+5ю369357 0.0 1008109
06:00+6ю3795100 0.1 1007258
09:00+7ююв4890100 0.1 1006764
12:00+9ю61175100 0.1 10051276
15:00+9ююв7127298 0.3 10041232
18:00+9ююв71275100 0.1 1004755
21:00+8ююв41080100 0.1 1005613
25 сентября, сб
сб2500:00+8юв4880100 0.0 1005842
03:00+8ююв4985100 0.1 1005486
06:00+7юв4885100 0.0 1006332
09:00+8ююв4883100 0.0 1007451
12:00+9ю4681100 0.0 1008550
15:00+11ю4476100 0.1 1008628
18:00+9ю3684100 0.0 1009195
21:00+9ю3790100 0.3 1008184
26 сентября, вс
вс2600:00+8ююз359399 0.4 1008152
03:00+8зюз2391100 0.4 100885
06:00+8зюз1295100 0.2 100787
09:00+8ссз2497100 1.1 1007239
12:00+9ссз5889100 0.4 1008629
15:00+9ссз61089100 1.1 1011689
18:00+8с6109194 0.1 1013510
21:00+8с5996100 0.6 1014425
27 сентября, пн
пн2700:00+8с599491 0.4 1016340
03:00+8с599599 0.4 1018333
06:00+6с41096100 0.0 1020270
09:00+7с51190100 0.0 1021444
12:00+8с6988100 0.0 1023640
15:00+12ссв5770100 0.4 10231107
18:00+9ссв4886100 0.2 1025439
21:00+8ссв4893100 0.2 1026421